Tucson, AZ

1:39 PM MST on April 26, 2017 (GMT -0700)
Tucson International

Weather History for KTUS - August, 2013

Change the Weather History Date:

Saturday, August 31, 2013

  Actual Average Record
Temperature  
Mean Temperature 85 °F 85 °F  
Max Temperature 97 °F 97 °F 108 °F (1950)
Min Temperature 73 °F 72 °F 62 °F (1895)
Degree Days  
Heating Degree Days 0 0  
Month to date heating degree days 0 0  
Since 1 June heating degree days 0 0  
Since 1 July heating degree days 0 0  
Cooling Degree Days 20 20  
Month to date cooling degree days 702 631  
Year to date cooling degree days 2874 2410  
Since 1 June cooling degree days 2163 1908  
Growing Degree Days 35 (Base 50)    
Moisture  
Dew Point 63 °F    
Average Humidity 50    
Maximum Humidity 74    
Minimum Humidity 25    
Precipitation  
Precipitation 0.00 in 0.06 in 1.66 in (1957)
Month to date precipitation 0.48 2.39  
Year to date precipitation 4.85 7.91  
Snow  
Snow 0.00 in - - ()
Month to date snowfall 0.0  
Snow Depth 0.00 in    
Sea Level Pressure  
Sea Level Pressure 29.87 in    
Wind  
Wind Speed 6 mph (WNW)    
Max Wind Speed 18 mph    
Max Gust Speed 24 mph    
Visibility 10 miles    
Events      
T = Trace of Precipitation, MM = Missing Value Source: NWS Daily Summary

Daily Weather History Graph

Daily Weather History Graph

Search for Another Location

Airport or City:

Trip Planner

Search our weather history database for the weather conditions in past years. The results will help you decide how hot, cold, wet, or windy it might be!

Date:

Astronomy

Aug. 31, 2013 Rise Set
Actual Time 5:58 AM MST 6:48 PM MST
Civil Twilight 5:33 AM MST 7:13 PM MST
Nautical Twilight 5:04 AM MST 7:43 PM MST
Astronomical Twilight 4:33 AM MST 8:13 PM MST
Moon 1:40 AM MST (8/31) 3:40 PM MST (8/31)
Length of Visible Light 13h 40m
Length of Day
12h 50m
Waning Crescent, 20% of the Moon is Illuminated
Aug 31
Waning Crescent
Sep 5
New
Sep 12
First Quarter
Sep 19
Full
Sep 26
Last Quarter

Hourly Weather History & Observations

Time (MST) Temp. Heat Index Dew Point Humidity Pressure Visibility Wind Dir Wind Speed Gust Speed Precip Events Conditions
12:53 AM 78.1 °F - 68.0 °F 71% 29.91 in 10.0 mi Calm Calm - N/A   Clear
1:53 AM 77.0 °F - 66.9 °F 71% 29.90 in 10.0 mi WSW 3.5 mph - N/A   Clear
2:53 AM 75.9 °F - 66.9 °F 74% 29.89 in 10.0 mi West 5.8 mph - N/A   Clear
3:53 AM 75.9 °F - 66.9 °F 74% 29.90 in 10.0 mi Calm Calm - N/A   Clear
4:53 AM 75.9 °F - 66.0 °F 71% 29.91 in 10.0 mi Calm Calm - N/A   Clear
5:53 AM 73.9 °F - 64.9 °F 73% 29.93 in 10.0 mi SE 5.8 mph - N/A   Clear
6:53 AM 75.0 °F - 66.9 °F 76% 29.94 in 10.0 mi South 5.8 mph - N/A   Clear
7:53 AM 79.0 °F - 66.9 °F 66% 29.94 in 10.0 mi SSE 3.5 mph - N/A   Clear
8:53 AM 82.9 °F 85.4 °F 66.9 °F 58% 29.93 in 10.0 mi Calm Calm - N/A   Clear
9:53 AM 86.0 °F 87.6 °F 64.9 °F 49% 29.93 in 10.0 mi Calm Calm - N/A   Clear
10:53 AM 89.1 °F 90.0 °F 63.0 °F 42% 29.91 in 10.0 mi Calm Calm - N/A   Clear
11:53 AM 91.9 °F 94.1 °F 64.9 °F 41% 29.88 in 10.0 mi West 3.5 mph - N/A   Clear
12:53 PM 95.0 °F 95.6 °F 62.1 °F 33% 29.86 in 10.0 mi West 5.8 mph - N/A   Partly Cloudy
1:53 PM 96.1 °F 96.0 °F 60.1 °F 30% 29.83 in 10.0 mi WNW 11.5 mph - N/A   Clear
2:53 PM 97.0 °F 96.5 °F 59.0 °F 28% 29.81 in 10.0 mi NNW 11.5 mph - N/A   Clear
3:53 PM 96.1 °F 95.2 °F 57.9 °F 28% 29.79 in 10.0 mi NW 13.8 mph 23.0 mph N/A   Clear
4:53 PM 96.1 °F 94.1 °F 55.0 °F 25% 29.79 in 10.0 mi NW 13.8 mph 21.9 mph N/A   Clear
5:53 PM 93.9 °F 93.2 °F 59.0 °F 31% 29.79 in 10.0 mi NNW 12.7 mph - N/A   Clear
6:53 PM 91.0 °F 91.5 °F 62.1 °F 38% 29.81 in 10.0 mi NW 8.1 mph - N/A   Clear
7:53 PM 90.0 °F 89.1 °F 59.0 °F 35% 29.83 in 10.0 mi WNW 6.9 mph - N/A   Clear
8:53 PM 90.0 °F 89.7 °F 60.1 °F 37% 29.84 in 10.0 mi NW 5.8 mph - N/A   Clear
9:53 PM 88.0 °F 87.9 °F 61.0 °F 40% 29.84 in 10.0 mi WNW 4.6 mph - N/A   Clear
10:53 PM 82.9 °F 84.4 °F 64.0 °F 53% 29.85 in 10.0 mi SW 4.6 mph - N/A   Clear
11:53 PM 82.0 °F 83.8 °F 64.9 °F 56% 29.85 in 10.0 mi Variable 5.8 mph - N/A   Clear